This is the latest recevied weather packets stored in our database for station/object WA6ODQ-13. If no packets are shown the sender has not sent any weather packets the latest 10 day(s).
| Time | Temp. | Humidity | Pressure | Rain* | Wind** | Luminosity | Snow |
|---|---|---|---|---|---|---|---|
| 1777739002 | 13.33° C | 85% | 1010.3 hPa | 0 mm | - | 116 W/m² | - |
| 1777738699 | 13.33° C | 86% | 1010.3 hPa | 0 mm | - | 100 W/m² | - |
| 1777738395 | 13.33° C | 86% | 1010.4 hPa | 0 mm | - | 88 W/m² | - |
| 1777738093 | 13.33° C | 87% | 1010.1 hPa | 0 mm | - | 83 W/m² | - |
| 1777737792 | 13.33° C | 87% | 1010.4 hPa | 0 mm | - | 78 W/m² | - |
| 1777737490 | 13.33° C | 87% | 1010.3 hPa | 0 mm | - | 79 W/m² | - |
| 1777737188 | 13.33° C | 87% | 1010.3 hPa | 0 mm | - | 85 W/m² | - |
| 1777736883 | 13.33° C | 87% | 1010.3 hPa | 0 mm | - | 97 W/m² | - |
| 1777736270 | 13.33° C | 87% | 1009.8 hPa | 0 mm | - | 92 W/m² | - |
| 1777735967 | 13.33° C | 87% | 1010.1 hPa | 0 mm | - | 102 W/m² | - |
| 1777735664 | 13.33° C | 87% | 1010.1 hPa | 0 mm | - | 99 W/m² | - |
| 1777735362 | 13.33° C | 87% | 1010 hPa | 0 mm | - | 102 W/m² | - |
| 1777735059 | 13.33° C | 87% | 1009.8 hPa | 0 mm | - | 103 W/m² | - |
| 1777734756 | 13.33° C | 87% | 1010 hPa | 0 mm | - | 102 W/m² | - |
| 1777734454 | 13.33° C | 87% | 1010.3 hPa | 0 mm | - | 103 W/m² | - |
| 1777734150 | 13.33° C | 87% | 1010 hPa | 0 mm | - | 93 W/m² | - |
| 1777733846 | 12.78° C | 87% | 1009.9 hPa | 0 mm | - | 79 W/m² | - |
| 1777733543 | 13.33° C | 87% | 1010 hPa | 0 mm | - | 69 W/m² | - |
| 1777733240 | 12.78° C | 88% | 1010.1 hPa | 0 mm | - | 60 W/m² | - |
| 1777732936 | 12.78° C | 88% | 1010 hPa | 0 mm | - | 53 W/m² | - |
| 1777732632 | 12.78° C | 88% | 1009.8 hPa | 0 mm | - | 51 W/m² | - |
| 1777732330 | 12.78° C | 88% | 1009.8 hPa | 0 mm | - | 47 W/m² | - |
| 1777732028 | 12.78° C | 88% | 1009.6 hPa | 0 mm | - | 40 W/m² | - |
| 1777731724 | 12.78° C | 88% | 1009.5 hPa | 0 mm | - | 34 W/m² | - |
| 1777731421 | 12.78° C | 88% | 1009.3 hPa | 0 mm | - | 31 W/m² | - |
* Rain latest hour (hover to see other rain measurements)
** Current wind speed in m/s (hover to see current wind gust speed)